2019 UK6
ephemeris date magn radius delta ra dec elong phase
Today4 Sep 202628.12.386 AU2.018 AU17h16m-19°08'98.5°24.7°
2019 UK6 - 2026-09-04
astro.vanbuitenen.nl


 
-1 year
-1 month
-1 day
Now
+1 day
+1 month
+1 year

The interactive orbit chart above shows the body's path through the solar system and its position at the given date. Green and blue lines are shown perpendicular to the ecliptic plane: Green if the path is above the ecliptic plane, blue if it is below. (Left-click and drag to rotate the view; Right-click and drag to move the view; Use scroll wheel to zoom in our out.)

The orbital elements of 2019 UK6 are:

            e (Eccentricity)                : 0.5732247
            a (Semimajor axis)              : 2.3910162
            i (Inclination)                 : 5.34443
            Ω (Longitude of ascending node) : 246.35548
            ω (Argument of perihelion)      : 162.96377
            M (Mean anomaly)                : 279.87570
            Epoch                           : 2026 Jun 09

            L (Longitude of perihelion)     : 229.38905
            B (Latitude of perihelion)      : 1.56372
            P (Orbital period in years)     : 3.70            
        

The light curve chart below shows the estimated development of the minor planet's magnitude.


The all-sky chart below shows the path of the minor planet over the same period as the light curve. The current position is marked yellow.





The following chart shows the path of the minor planet in the next few days. The field of view is optimized for (~10x50) binoculars and finderscopes.




Ephemerides:
Date       Time       RA (2000)    DEC (2000)    delta   radius  elong  phase   PA    magn
2026-09-04 00:00 UT   17 16 14.0   -19 08 43     2.018    2.386   98.5   24.7    95   28.1 
2026-09-04 15:57 UT   17 16 30.1   -19 09 13     2.023    2.381   97.9   24.8    95   28.2 
2026-09-05 00:00 UT   17 16 38.5   -19 09 29     2.025    2.379   97.6   24.8    95   28.2 
2026-09-06 00:00 UT   17 17 04.6   -19 10 17     2.033    2.373   96.8   25.0    95   28.2 
2026-09-07 00:00 UT   17 17 32.5   -19 11 06     2.040    2.366   95.9   25.1    95   28.2 
2026-09-08 00:00 UT   17 18 02.1   -19 11 57     2.047    2.360   95.1   25.2    95   28.2 
2026-09-09 00:00 UT   17 18 33.4   -19 12 50     2.054    2.353   94.2   25.3    94   28.2 
2026-09-10 00:00 UT   17 19 06.4   -19 13 43     2.062    2.347   93.4   25.4    94   28.2 
2026-09-11 00:00 UT   17 19 41.1   -19 14 38     2.069    2.340   92.5   25.5    94   28.2 
2026-09-12 00:00 UT   17 20 17.4   -19 15 35     2.076    2.334   91.7   25.5    94   28.2 
2026-09-13 00:00 UT   17 20 55.4   -19 16 32     2.083    2.327   90.9   25.6    94   28.2 
2026-09-14 00:00 UT   17 21 34.9   -19 17 30     2.090    2.321   90.1   25.7    94   28.2 
2026-09-15 00:00 UT   17 22 16.1   -19 18 29     2.097    2.314   89.3   25.8    94   28.2 
2026-09-16 00:00 UT   17 22 58.9   -19 19 29     2.104    2.308   88.5   25.8    94   28.2 
2026-09-17 00:00 UT   17 23 43.3   -19 20 29     2.111    2.301   87.7   25.9    93   28.2 
2026-09-18 00:00 UT   17 24 29.2   -19 21 29     2.118    2.294   86.9   25.9    93   28.2 
2026-09-19 00:00 UT   17 25 16.7   -19 22 30     2.125    2.288   86.1   26.0    93   28.2 
2026-09-20 00:00 UT   17 26 05.7   -19 23 32     2.132    2.281   85.3   26.0    93   28.2 
2026-09-21 00:00 UT   17 26 56.2   -19 24 33     2.139    2.275   84.5   26.1    93   28.2 
2026-09-22 00:00 UT   17 27 48.2   -19 25 34     2.146    2.268   83.8   26.1    93   28.2 
2026-09-23 00:00 UT   17 28 41.7   -19 26 36     2.152    2.261   83.0   26.1    93   28.2 
2026-09-24 00:00 UT   17 29 36.7   -19 27 37     2.159    2.254   82.2   26.2    93   28.2 
2026-09-25 00:00 UT   17 30 33.1   -19 28 37     2.166    2.248   81.5   26.2    92   28.2 
2026-09-26 00:00 UT   17 31 31.0   -19 29 37     2.172    2.241   80.7   26.2    92   28.2 
2026-09-27 00:00 UT   17 32 30.2   -19 30 37     2.179    2.234   80.0   26.2    92   28.2 
2026-09-28 00:00 UT   17 33 30.9   -19 31 36     2.185    2.227   79.2   26.2    92   28.2 
2026-09-29 00:00 UT   17 34 33.0   -19 32 34     2.191    2.221   78.5   26.2    92   28.2 
2026-09-30 00:00 UT   17 35 36.5   -19 33 32     2.198    2.214   77.8   26.2    92   28.2 
2026-10-01 00:00 UT   17 36 41.4   -19 34 28     2.204    2.207   77.1   26.2    91   28.2 
2026-10-02 00:00 UT   17 37 47.6   -19 35 23     2.210    2.200   76.3   26.2    91   28.2 
2026-10-03 00:00 UT   17 38 55.2   -19 36 17     2.216    2.193   75.6   26.2    91   28.2 
2026-10-04 00:00 UT   17 40 04.1   -19 37 09     2.222    2.186   74.9   26.2    91   28.2 


    Terminology:
            
    delta:  distance between minor planet and earth in AU
    radius: distance between minor planet and sun in AU
    magn:   magnitude (brightness) estimate    
    ra:     right ascension in hours (24h = 360deg)
    dec:    declination in degrees
    elong:  elongation in degrees (angle sun-earth-minor planet)    
    phase:  phase angle in degrees (angle sun-minor planet-earth)        
    AU:     Astronomical Unit (mean distance between earth and sun: 149597870.7 km
    

Orbital elements provided by the MPC (Minor Planet Center).
Calculations by a modified version of AAPlus, a C# implementation of the AA+ project by PJ Naughter from the algorithms presented in the book "Astronomical Algorithms" by Jean Meeus.
NGC2000 dso catalog and star labels from VizieR as provided by the Strasbourg astronomical Data Center.
Tycho2 catalog from the ESO archive.